User: anonymous   Login
Location: Cornospital
(48.0620°N, 3.3837°W)
Time: 17:01:44
(UTC+00:00)
Language:

FALCON 9 DEB - Orbit

View from above orbital plane
View from above orbital plane
View from above satellite
View from above satellite

Ground track
Ground track

The orbit data is extracted from the following two-line orbital elements,

1 46087U 20055BN  21258.87017487  .00022477  00000-0  19130-3 0  9996
2 46087  53.0047 109.0110 0010752 162.6721 197.4664 15.69461700 67883
Epoch (UTC): 15 September 2021 20:53:03
Eccentricity: 0.0010752
inclination: 53.0047°
perigee height: 353 km
apogee height: 367 km
right ascension of ascending node: 109.0110°
argument of perigee: 162.6721°
revolutions per day: 15.69461700
mean anomaly at epoch: 197.4664°
orbit number at epoch: 6788

The dashed part of the orbit path shows where the satellite is in the earth's shadow,  

DLR